Simultaneous Nadir Overpasses (SNOs) Predictions

Prediction of SNOs between GOES-15 and METOP-C Satellite Orbit:

Table of predicted SNOs for the next 14.0 days since TLE Epoch: 7/20/2019
Index Date Time (GOES-15) GOES-15 Lat,Lon METOP-C Lat,Lon Distance(km) Time Diff (sec)
1 07/21/2019 17:55:08 -0.09,-128.00 -0.42,-126.47 174.68 80
2 07/23/2019 06:16:47 0.06,-128.03 -0.63,-131.05 345.07 80
3 07/24/2019 05:53:29 0.08,-128.05 0.52,-126.07 226.17 80
4 07/25/2019 18:15:01 -0.05,-128.11 0.50,-130.63 287.01 80
5 07/26/2019 17:51:41 -0.07,-128.14 -0.60,-125.64 284.27 80
6 07/28/2019 06:13:22 0.03,-128.15 -0.41,-130.23 236.43 80
7 07/29/2019 05:50:02 0.06,-128.17 0.69,-125.24 333.84 80
8 07/30/2019 18:11:34 -0.03,-128.21 0.32,-129.80 181.10 80
9 07/31/2019 17:48:16 -0.05,-128.23 -0.84,-124.82 389.12 80
10 08/02/2019 06:09:55 0.02,-128.24 -0.24,-129.40 132.56 80
11 08/03/2019 05:46:37 0.05,-128.25 0.92,-124.42 436.97 80




NCC Satellite Simultaneous Nadir Overpasses (SNOs) Prediction Service
